Weather History for KDYR - March, 2015

Change the Weather History Date:

Thursday, March 19, 2015

  Actual Average Record
Temperature  
Mean Temperature 46 °F -  
Max Temperature 51 °F 56 °F 80 °F (2012)
Min Temperature 41 °F 40 °F 33 °F (2013)
Degree Days  
Heating Degree Days 19    
Moisture  
Dew Point 32 °F    
Average Humidity 58    
Maximum Humidity 66    
Minimum Humidity 54    
Precipitation  
Precipitation 0.00 in - - ()
Sea Level Pressure  
Sea Level Pressure 30.08 in    
Wind  
Wind Speed 4 mph (NE)    
Max Wind Speed 9 mph    
Max Gust Speed -    
Visibility 10 miles    
Events      
Averages and records for this station are not official NWS values.
T = Trace of Precipitation, MM = Missing Value Source: NWS Daily Summary

Daily Weather History Graph

Daily Weather History Graph

Search for Another Location

Airport or City:

Trip Planner

Search our weather history database for the weather conditions in past years. The results will help you decide how hot, cold, wet, or windy it might be!

Date:

Astronomy

Mar. 19, 2015 Rise Set
Actual Time 7:02 AM CDT 7:08 PM CDT
Civil Twilight 6:37 AM CDT 7:33 PM CDT
Nautical Twilight 6:07 AM CDT 8:03 PM CDT
Astronomical Twilight 5:37 AM CDT 8:34 PM CDT
Moon 6:25 AM CDT (3/19) 6:37 PM CDT (3/19)
Length of Visible Light 12h 56m
Length of Day
12h 05m
Waning Crescent, 1% of the Moon is Illuminated
Mar 19
Waning Crescent
Mar 20
New
Mar 27
First Quarter
Apr 4
Full
Apr 11
Last Quarter

Hourly Weather History & Observations

Time (CDT) Temp. Windchill Dew Point Humidity Pressure Visibility Wind Dir Wind Speed Gust Speed Precip Events Conditions
12:15 AM 42.8 °F 40.1 °F 28.4 °F 57% 30.09 in 10.0 mi ENE 4.6 mph - N/A   Overcast
12:35 AM 42.8 °F 39.3 °F 28.4 °F 57% 30.09 in 10.0 mi East 5.8 mph - N/A   Overcast
12:55 AM 42.8 °F 39.3 °F 28.4 °F 57% 30.08 in 10.0 mi ENE 5.8 mph - N/A   Overcast
1:15 AM 42.8 °F 40.1 °F 28.4 °F 57% 30.08 in 10.0 mi ENE 4.6 mph - N/A   Overcast
1:35 AM 42.8 °F 38.6 °F 28.4 °F 57% 30.07 in 10.0 mi ENE 6.9 mph - N/A   Overcast
1:55 AM 42.8 °F 40.1 °F 28.4 °F 57% 30.07 in 10.0 mi NE 4.6 mph - N/A   Overcast
2:15 AM 42.8 °F 39.3 °F 28.4 °F 57% 30.08 in 10.0 mi NE 5.8 mph - N/A   Overcast
2:35 AM 42.8 °F 38.6 °F 28.4 °F 57% 30.08 in 10.0 mi ENE 6.9 mph - N/A   Overcast
2:55 AM 42.8 °F 40.1 °F 28.4 °F 57% 30.09 in 10.0 mi NE 4.6 mph - N/A   Overcast
3:15 AM 42.8 °F 40.1 °F 28.4 °F 57% 30.08 in 10.0 mi ENE 4.6 mph - N/A   Overcast
3:35 AM 42.8 °F 38.6 °F 28.4 °F 57% 30.07 in 10.0 mi ENE 6.9 mph - N/A   Overcast
3:55 AM 42.8 °F 38.6 °F 28.4 °F 57% 30.07 in 10.0 mi NE 6.9 mph - N/A   Overcast
4:15 AM 42.8 °F 37.5 °F 28.4 °F 57% 30.07 in 10.0 mi NE 9.2 mph - N/A   Overcast
4:35 AM 42.8 °F 37.5 °F 28.4 °F 57% 30.07 in 10.0 mi NE 9.2 mph - N/A   Overcast
4:55 AM 42.8 °F 38.0 °F 28.4 °F 57% 30.07 in 10.0 mi NE 8.1 mph - N/A   Overcast
5:15 AM 42.8 °F 38.6 °F 28.4 °F 57% 30.07 in 10.0 mi NE 6.9 mph - N/A   Overcast
5:35 AM 42.8 °F 39.3 °F 28.4 °F 57% 30.08 in 10.0 mi NE 5.8 mph - N/A   Overcast
5:55 AM 42.8 °F 38.6 °F 28.4 °F 57% 30.08 in 9.0 mi NE 6.9 mph - N/A   Overcast
6:15 AM 42.8 °F 38.6 °F 28.4 °F 57% 30.07 in 8.0 mi NE 6.9 mph - N/A   Overcast
6:35 AM 42.8 °F 39.3 °F 28.4 °F 57% 30.08 in 10.0 mi ENE 5.8 mph - N/A   Overcast
6:55 AM 42.8 °F 40.1 °F 28.4 °F 57% 30.09 in 7.0 mi NE 4.6 mph - N/A   Overcast
7:15 AM 41.0 °F 36.4 °F 28.4 °F 61% 30.09 in 3.0 mi ENE 6.9 mph - N/A   Overcast
7:35 AM 41.0 °F 36.4 °F 28.4 °F 61% 30.09 in 9.0 mi NE 6.9 mph - N/A   Overcast
7:55 AM 41.0 °F 36.4 °F 28.4 °F 61% 30.09 in 5.0 mi ENE 6.9 mph - N/A   Overcast
8:15 AM 42.8 °F 41.1 °F 28.4 °F 57% 30.10 in 10.0 mi NE 3.5 mph - N/A   Overcast
8:35 AM 42.8 °F 40.1 °F 28.4 °F 57% 30.10 in 10.0 mi NE 4.6 mph - N/A   Overcast
8:55 AM 42.8 °F 40.1 °F 28.4 °F 57% 30.10 in 9.0 mi NE 4.6 mph - N/A   Overcast
9:15 AM 42.8 °F 39.3 °F 28.4 °F 57% 30.10 in 10.0 mi ENE 5.8 mph - N/A   Overcast
9:35 AM 42.8 °F 40.1 °F 28.4 °F 57% 30.11 in 10.0 mi ENE 4.6 mph - N/A   Overcast
9:55 AM 42.8 °F 40.1 °F 30.2 °F 61% 30.11 in 10.0 mi ENE 4.6 mph - N/A   Overcast
10:15 AM 42.8 °F 39.3 °F 30.2 °F 61% 30.11 in 8.0 mi NE 5.8 mph - N/A   Overcast
10:35 AM 44.6 °F 41.4 °F 30.2 °F 57% 30.11 in 10.0 mi NE 5.8 mph - N/A   Overcast
10:55 AM 44.6 °F 41.4 °F 30.2 °F 57% 30.11 in 10.0 mi NE 5.8 mph - N/A   Overcast
11:15 AM 44.6 °F 43.1 °F 33.8 °F 66% 30.10 in 9.0 mi NE 3.5 mph - N/A   Overcast
11:35 AM 44.6 °F - 32.0 °F 61% 30.10 in 10.0 mi Calm Calm - N/A   Overcast
11:55 AM 46.4 °F 45.2 °F 33.8 °F 62% 30.09 in 10.0 mi NE 3.5 mph - N/A   Overcast
12:15 PM 46.4 °F - 33.8 °F 62% 30.10 in 10.0 mi Calm Calm - N/A   Overcast
12:35 PM 46.4 °F - 33.8 °F 62% 30.09 in 10.0 mi Calm Calm - N/A   Overcast
12:55 PM 46.4 °F - 33.8 °F 62% 30.09 in 10.0 mi Calm Calm - N/A   Overcast
1:15 PM 48.2 °F - 33.8 °F 58% 30.08 in 10.0 mi Calm Calm - N/A   Overcast
1:35 PM 48.2 °F - 33.8 °F 58% 30.07 in 10.0 mi Calm Calm - N/A   Overcast
1:55 PM 50.0 °F - 35.6 °F 58% 30.06 in 10.0 mi Calm Calm - N/A   Overcast
2:15 PM 51.8 °F - 35.6 °F 54% 30.05 in 10.0 mi Calm Calm - N/A   Overcast
2:35 PM 51.8 °F - 35.6 °F 54% 30.05 in 10.0 mi Calm Calm - N/A   Overcast
2:55 PM 51.8 °F - 37.4 °F 58% 30.04 in 10.0 mi Calm Calm - N/A   Overcast
3:15 PM 51.8 °F - 35.6 °F 54% 30.05 in 10.0 mi Calm Calm - N/A   Overcast
3:35 PM 51.8 °F - 35.6 °F 54% 30.04 in 10.0 mi Calm Calm - N/A   Overcast
3:55 PM 51.8 °F - 37.4 °F 58% 30.04 in 10.0 mi Calm Calm - N/A   Overcast
4:15 PM 51.8 °F - 35.6 °F 54% 30.04 in 10.0 mi Calm Calm - N/A   Overcast
4:35 PM 51.8 °F - 35.6 °F 54% 30.05 in 10.0 mi WNW 3.5 mph - N/A   Overcast
4:55 PM 51.8 °F - 35.6 °F 54% 30.06 in 10.0 mi West 5.8 mph - N/A   Overcast
5:15 PM 51.8 °F - 35.6 °F 54% 30.06 in 10.0 mi WNW 5.8 mph - N/A   Overcast
5:35 PM 51.8 °F - 35.6 °F 54% 30.06 in 10.0 mi NW 5.8 mph - N/A   Overcast
5:55 PM 51.8 °F - 35.6 °F 54% 30.05 in 10.0 mi NNW 4.6 mph - N/A   Overcast
6:15 PM 51.8 °F - 35.6 °F 54% 30.06 in 10.0 mi Calm Calm - N/A   Overcast
6:35 PM 51.8 °F - 35.6 °F 54% 30.07 in 10.0 mi NW 4.6 mph - N/A   Overcast
6:55 PM 50.0 °F - 35.6 °F 58% 30.08 in 10.0 mi WNW 3.5 mph - N/A   Overcast
7:15 PM 50.0 °F - 35.6 °F 58% 30.08 in 10.0 mi WNW 4.6 mph - N/A   Overcast
7:35 PM 50.0 °F - 35.6 °F 58% 30.07 in 10.0 mi NW 3.5 mph - N/A   Overcast
7:55 PM 50.0 °F - 35.6 °F 58% 30.07 in 10.0 mi Calm Calm - N/A   Overcast
8:15 PM 48.2 °F - 35.6 °F 62% 30.07 in 10.0 mi NNW 3.5 mph - N/A   Overcast
8:35 PM 48.2 °F - 35.6 °F 62% 30.08 in 10.0 mi Calm Calm - N/A   Overcast
8:55 PM 48.2 °F - 35.6 °F 62% 30.08 in 10.0 mi Calm Calm - N/A   Overcast
9:15 PM 48.2 °F - 35.6 °F 62% 30.08 in 10.0 mi Calm Calm - N/A   Overcast
9:35 PM 48.2 °F - 35.6 °F 62% 30.09 in 10.0 mi Calm Calm - N/A   Overcast
9:55 PM 48.2 °F - 35.6 °F 62% 30.09 in 10.0 mi Calm Calm - N/A   Overcast
10:15 PM 48.2 °F - 35.6 °F 62% 30.09 in 10.0 mi Calm Calm - N/A   Overcast
10:35 PM 48.2 °F - 35.6 °F 62% 30.09 in 10.0 mi Calm Calm - N/A   Overcast
10:55 PM 48.2 °F - 35.6 °F 62% 30.09 in 10.0 mi Calm Calm - N/A   Overcast
11:15 PM 48.2 °F - 35.6 °F 62% 30.09 in 10.0 mi Calm Calm - N/A   Overcast
11:35 PM 48.2 °F - 35.6 °F 62% 30.09 in 10.0 mi Calm Calm - N/A   Overcast
11:55 PM 48.2 °F - 35.6 °F 62% 30.09 in 10.0 mi Calm Calm - N/A   Overcast